Starlink 11297

operational
NORAD ID: 61060 Int'l Des: 2024-164 Owner: SPXS Country: US Constellation: starlink
LEOCIRCULAR

Über Starlink 11297

Beschreibung wird geladen...

Live-Position

3D-Globus wird geladen...

Nächste Überflüge

Höhenverlauf

Altitude vs Time

uPlot chart will show altitude changes over time

Zweizeiliger Elementsatz

1 61060U 24164L 25351.28440102 -.00001525 00000-0 -77253-5 0 9991
2 61060 53.1603 357.6833 0001424 117.0327 243.0837 15.69709440 72472
Epoch: 17. Dez. 2025 • Age: 27 hours

Aktueller Status

Höhe 360.6 km
Geschwindigkeit 7.70 km/s
Subsatellitenpunkt 30.15°N, 81.69°W
Startdatum 13. Sept. 2024
Alter 1.2 years
Typ internet

Technische Details

Klassifizierung Payload
Masse 960.00 kg
Trockenmasse 910.00 kg
Gesamtmasse 960.00 kg
Länge 0.30 m
Durchmesser 4.10 m
Spannweite 29.00 m
Form Box + pan
Hersteller SPXS
Bus-Typ Starlink V2MD
Phasenstatus In Orbit
Besitzer/Staat SPXS/US

Große Konstellationen

Loading constellations...